,,,PA_Meas_PMT16A,,PR_Meas_QMR101_102,,RH_Meas_QMH101,,SR_Meas_QMS101,,TA_Meas_QMH101,,GenWind,,GenWind,
date,time,status,PA,status,PR,status,RH,status,SR,status,TA,status,DirAvg,status,SpdAvg,
2008-04-02, 00:00:05,VALID,1010.97,VALID,0,VALID,95.0474,VALID,0.105969,VALID,23.9278,VALID,36,VALID,0.338281,
2008-04-02, 00:01:05,VALID,1010.97,VALID,0,VALID,95.0931,VALID,0,VALID,23.8871,VALID,34,VALID,0.203516,
2008-04-02, 00:02:05,VALID,1010.95,VALID,0,VALID,95.1389,VALID,0.105969,VALID,23.9084,VALID,34,VALID,0.196484,
2008-04-02, 00:03:05,VALID,1010.91,VALID,0,VALID,95.2075,VALID,0.105969,VALID,23.9084,VALID,31,VALID,0.209766,
2008-04-02, 00:04:05,VALID,1010.9,VALID,0,VALID,95.1847,VALID,0.105969,VALID,23.8889,VALID,31,VALID,0.0660156,
2008-04-02, 00:05:05,VALID,1010.84,VALID,0,VALID,95.2533,VALID,0,VALID,23.8676,VALID,49,VALID,0.359375,
2008-04-02, 00:06:05,VALID,1010.81,VALID,0,VALID,95.2609,VALID,0.105969,VALID,23.8889,VALID,60,VALID,0.0832031,
2008-04-02, 00:07:05,VALID,1010.79,VALID,0,VALID,95.2762,VALID,0.105969,VALID,23.8499,VALID,63,VALID,0.350781,
2008-04-02, 00:08:05,VALID,1010.78,VALID,0,VALID,95.3524,VALID,0,VALID,23.8889,VALID,67,VALID,0.255859,
2008-04-02, 00:09:05,VALID,1010.76,VALID,0,VALID,95.4134,VALID,0.105969,VALID,23.8694,VALID,67,VALID,0.226172,
2008-04-02, 00:10:05,VALID,1010.77,VALID,0,VALID,95.4439,VALID,0.105969,VALID,23.8889,VALID,67,VALID,0.235156,
2008-04-02, 00:11:05,VALID,1010.78,VALID,0,VALID,95.4211,VALID,0,VALID,23.9102,VALID,67,VALID,0.215625,
2008-04-02, 00:12:05,VALID,1010.8,VALID,0,VALID,95.4897,VALID,0,VALID,23.8907,VALID,67,VALID,0.242578,
2008-04-02, 00:13:05,VALID,1010.77,VALID,0,VALID,95.4439,VALID,0,VALID,23.9491,VALID,66,VALID,0.195703,
2008-04-02, 00:14:05,VALID,1010.75,VALID,0,VALID,95.4592,VALID,0,VALID,23.9102,VALID,66,VALID,0.267578,
2008-04-02, 00:15:05,VALID,1010.73,VALID,0,VALID,95.3677,VALID,0,VALID,23.8907,VALID,66,VALID,0.186719,
2008-04-02, 00:16:05,VALID,1010.72,VALID,0,VALID,95.3524,VALID,0,VALID,23.9102,VALID,66,VALID,0.18125,
2008-04-02, 00:17:05,VALID,1010.7,VALID,0,VALID,95.3829,VALID,0,VALID,23.8694,VALID,66,VALID,0.109375,
2008-04-02, 00:18:05,VALID,1010.7,VALID,0,VALID,95.3524,VALID,0,VALID,23.8694,VALID,66,VALID,0.221484,
2008-04-02, 00:19:05,VALID,1010.68,VALID,0,VALID,95.3372,VALID,0,VALID,23.8712,VALID,66,VALID,0.29375,
2008-04-02, 00:20:05,VALID,1010.66,VALID,0,VALID,95.3067,VALID,0,VALID,23.8694,VALID,66,VALID,0.248437,
2008-04-02, 00:21:05,VALID,1010.66,VALID,0,VALID,95.2685,VALID,0,VALID,23.8499,VALID,66,VALID,0.261328,
2008-04-02, 00:22:05,VALID,1010.66,VALID,0,VALID,95.2533,VALID,0,VALID,23.8712,VALID,66,VALID,0.188281,
2008-04-02, 00:23:05,VALID,1010.61,VALID,0,VALID,95.238,VALID,0,VALID,23.8322,VALID,66,VALID,0.228906,
2008-04-02, 00:24:05,VALID,1010.6,VALID,0,VALID,95.2762,VALID,0,VALID,23.7914,VALID,66,VALID,0.110937,
2008-04-02, 00:25:05,VALID,1010.57,VALID,0,VALID,95.299,VALID,0,VALID,23.7914,VALID,66,VALID,0.0382813,
2008-04-02, 00:26:05,VALID,1010.57,VALID,0,VALID,95.3219,VALID,0,VALID,23.8109,VALID,66,VALID,0,
2008-04-02, 00:27:05,VALID,1010.56,VALID,0,VALID,95.3295,VALID,0,VALID,23.7914,VALID,66,VALID,0.00117188,
2008-04-02, 00:28:05,VALID,1010.58,VALID,0,VALID,95.3753,VALID,0,VALID,23.772,VALID,66,VALID,0,
2008-04-02, 00:29:05,VALID,1010.57,VALID,0,VALID,95.4668,VALID,0,VALID,23.772,VALID,66,VALID,0.0503906,
2008-04-02, 00:30:05,VALID,1010.56,VALID,0,VALID,95.4973,VALID,0,VALID,23.772,VALID,66,VALID,0.103125,
2008-04-02, 00:31:05,VALID,1010.54,VALID,0,VALID,95.5659,VALID,0,VALID,23.7914,VALID,66,VALID,0,
2008-04-02, 00:32:05,VALID,1010.53,VALID,0,VALID,95.6041,VALID,0.105969,VALID,23.7914,VALID,66,VALID,0,
2008-04-02, 00:33:05,VALID,1010.55,VALID,0,VALID,95.6346,VALID,0.105969,VALID,23.8109,VALID,66,VALID,0,
2008-04-02, 00:34:05,VALID,1010.51,VALID,0,VALID,95.6346,VALID,0,VALID,23.8109,VALID,66,VALID,0,
2008-04-02, 00:35:05,VALID,1010.52,VALID,0,VALID,95.5736,VALID,0,VALID,23.7896,VALID,66,VALID,0.0800781,
2008-04-02, 00:36:05,VALID,1010.47,VALID,0,VALID,95.5659,VALID,0.105969,VALID,23.8109,VALID,66,VALID,0.00820312,
2008-04-02, 00:37:05,VALID,1010.48,VALID,0,VALID,95.5812,VALID,0,VALID,23.8109,VALID,66,VALID,0,
2008-04-02, 00:38:05,VALID,1010.47,VALID,0,VALID,95.5507,VALID,0,VALID,23.7896,VALID,66,VALID,0,
2008-04-02, 00:39:05,VALID,1010.48,VALID,0,VALID,95.5507,VALID,0.105969,VALID,23.7896,VALID,66,VALID,0,
2008-04-02, 00:40:05,VALID,1010.45,VALID,0,VALID,95.5431,VALID,0,VALID,23.7701,VALID,66,VALID,0,
2008-04-02, 00:41:05,VALID,1010.45,VALID,0,VALID,95.4134,VALID,0,VALID,23.7543,VALID,66,VALID,0,
2008-04-02, 00:42:05,VALID,1010.42,VALID,0,VALID,95.3982,VALID,0,VALID,23.7348,VALID,66,VALID,0,
2008-04-02, 00:43:05,VALID,1010.4,VALID,0,VALID,95.3753,VALID,0,VALID,23.7348,VALID,66,VALID,0,
2008-04-02, 00:44:05,VALID,1010.42,VALID,0,VALID,95.4516,VALID,0,VALID,23.7135,VALID,66,VALID,0,
2008-04-02, 00:45:05,VALID,1010.42,VALID,0,VALID,95.4211,VALID,0,VALID,23.7153,VALID,66,VALID,0,
2008-04-02, 00:46:05,VALID,1010.45,VALID,0,VALID,95.3677,VALID,0,VALID,23.7153,VALID,66,VALID,0,
2008-04-02, 00:47:05,VALID,1010.42,VALID,0,VALID,95.4134,VALID,0,VALID,23.6763,VALID,66,VALID,0,
2008-04-02, 00:48:05,VALID,1010.46,VALID,0,VALID,95.4821,VALID,0,VALID,23.7153,VALID,66,VALID,0,
2008-04-02, 00:49:05,VALID,1010.44,VALID,0,VALID,95.5126,VALID,0,VALID,23.694,VALID,66,VALID,0,
2008-04-02, 00:50:05,VALID,1010.44,VALID,0,VALID,95.5431,VALID,0,VALID,23.7348,VALID,66,VALID,0,
2008-04-02, 00:51:05,VALID,1010.43,VALID,0,VALID,95.4668,VALID,0,VALID,23.6958,VALID,66,VALID,0,
2008-04-02, 00:52:05,VALID,1010.4,VALID,0,VALID,95.5049,VALID,0,VALID,23.7153,VALID,66,VALID,0,
2008-04-02, 00:53:05,VALID,1010.42,VALID,0,VALID,95.5431,VALID,0,VALID,23.6958,VALID,66,VALID,0,
2008-04-02, 00:54:05,VALID,1010.39,VALID,0,VALID,95.5964,VALID,0,VALID,23.7366,VALID,66,VALID,0,
2008-04-02, 00:55:05,VALID,1010.38,VALID,0,VALID,95.5278,VALID,0,VALID,23.6958,VALID,66,VALID,0,
2008-04-02, 00:56:05,VALID,1010.39,VALID,0,VALID,95.5278,VALID,0,VALID,23.694,VALID,128,VALID,0.398438,
2008-04-02, 00:57:05,VALID,1010.39,VALID,0,VALID,95.4439,VALID,0,VALID,23.6745,VALID,128,VALID,0.236328,
2008-04-02, 00:58:05,VALID,1010.39,VALID,0,VALID,95.4592,VALID,0,VALID,23.655,VALID,148,VALID,0.403125,
2008-04-02, 00:59:05,VALID,1010.41,VALID,0,VALID,95.5126,VALID,0,VALID,23.694,VALID,151,VALID,0.302734,
2008-04-02, 01:00:05,VALID,1010.4,VALID,0,VALID,95.5659,VALID,0,VALID,23.6745,VALID,151,VALID,0.182422,
2008-04-02, 01:01:05,VALID,1010.38,VALID,0,VALID,95.5583,VALID,0,VALID,23.6745,VALID,151,VALID,0.101953,
2008-04-02, 01:02:05,VALID,1010.37,VALID,0,VALID,95.5812,VALID,0,VALID,23.6745,VALID,151,VALID,0.00273437,
2008-04-02, 01:03:05,VALID,1010.34,VALID,0,VALID,95.6193,VALID,0,VALID,23.694,VALID,151,VALID,0,
2008-04-02, 01:04:05,VALID,1010.32,VALID,0,VALID,95.6498,VALID,0,VALID,23.6745,VALID,151,VALID,0,
2008-04-02, 01:05:05,VALID,1010.34,VALID,0,VALID,95.7261,VALID,0,VALID,23.694,VALID,151,VALID,0,
2008-04-02, 01:06:05,VALID,1010.35,VALID,0,VALID,95.7795,VALID,0,VALID,23.733,VALID,151,VALID,0,
2008-04-02, 01:07:05,VALID,1010.36,VALID,0,VALID,95.8023,VALID,0,VALID,23.7525,VALID,151,VALID,0,
2008-04-02, 01:08:05,VALID,1010.38,VALID,0,VALID,95.7947,VALID,0,VALID,23.7525,VALID,151,VALID,0,
2008-04-02, 01:09:05,VALID,1010.39,VALID,0,VALID,95.7871,VALID,0,VALID,23.733,VALID,151,VALID,0,
2008-04-02, 01:10:05,VALID,1010.4,VALID,0,VALID,95.7566,VALID,0,VALID,23.733,VALID,151,VALID,0,
2008-04-02, 01:11:05,VALID,1010.38,VALID,0,VALID,95.7718,VALID,0,VALID,23.733,VALID,151,VALID,0,
2008-04-02, 01:12:05,VALID,1010.37,VALID,0,VALID,95.7795,VALID,0,VALID,23.733,VALID,151,VALID,0,
2008-04-02, 01:13:05,VALID,1010.34,VALID,0,VALID,95.8023,VALID,0,VALID,23.733,VALID,151,VALID,0,
2008-04-02, 01:14:05,VALID,1010.32,VALID,0,VALID,95.7642,VALID,0,VALID,23.7117,VALID,151,VALID,0,
2008-04-02, 01:15:05,VALID,1010.33,VALID,0,VALID,95.7871,VALID,0,VALID,23.733,VALID,151,VALID,0,
2008-04-02, 01:16:05,VALID,1010.33,VALID,0,VALID,95.7718,VALID,0,VALID,23.733,VALID,151,VALID,0,
2008-04-02, 01:17:05,VALID,1010.32,VALID,0,VALID,95.7261,VALID,0.105969,VALID,23.6727,VALID,151,VALID,0,
2008-04-02, 01:18:05,VALID,1010.34,VALID,0,VALID,95.7566,VALID,0.105969,VALID,23.694,VALID,151,VALID,0,
2008-04-02, 01:19:05,VALID,1010.34,VALID,0,VALID,95.8023,VALID,0,VALID,23.7135,VALID,151,VALID,0,
2008-04-02, 01:20:05,VALID,1010.33,VALID,0,VALID,95.7871,VALID,0.105969,VALID,23.7135,VALID,151,VALID,0.193359,
2008-04-02, 01:21:05,VALID,1010.29,VALID,0,VALID,95.8023,VALID,0.105969,VALID,23.733,VALID,151,VALID,0.0839844,
2008-04-02, 01:22:05,VALID,1010.29,VALID,0,VALID,95.7947,VALID,0.105969,VALID,23.7135,VALID,151,VALID,0,
2008-04-02, 01:23:05,VALID,1010.26,VALID,0,VALID,95.7642,VALID,0,VALID,23.733,VALID,151,VALID,0,
2008-04-02, 01:24:05,VALID,1010.27,VALID,0,VALID,95.7337,VALID,0.105969,VALID,23.7135,VALID,151,VALID,0,
2008-04-02, 01:25:05,VALID,1010.25,VALID,0,VALID,95.7108,VALID,0,VALID,23.733,VALID,151,VALID,0,
2008-04-02, 01:26:05,VALID,1010.26,VALID,0,VALID,95.688,VALID,0,VALID,23.7135,VALID,151,VALID,0,
2008-04-02, 01:27:05,VALID,1010.22,VALID,0,VALID,95.6727,VALID,0.105969,VALID,23.733,VALID,151,VALID,0,
2008-04-02, 01:28:05,VALID,1010.23,VALID,0,VALID,95.6422,VALID,0.105969,VALID,23.6922,VALID,151,VALID,0.260938,
2008-04-02, 01:29:05,VALID,1010.2,VALID,0,VALID,95.6574,VALID,0.105969,VALID,23.733,VALID,151,VALID,0.166406,
2008-04-02, 01:30:05,VALID,1010.17,VALID,0,VALID,95.5812,VALID,0.105969,VALID,23.7117,VALID,151,VALID,0.0796875,
2008-04-02, 01:31:05,VALID,1010.15,VALID,0,VALID,95.5507,VALID,0.105969,VALID,23.733,VALID,151,VALID,0.09375,
2008-04-02, 01:32:05,VALID,1010.12,VALID,0,VALID,95.5202,VALID,0.105969,VALID,23.6922,VALID,151,VALID,0,
2008-04-02, 01:33:05,VALID,1010.13,VALID,0,VALID,95.4973,VALID,0.105969,VALID,23.6727,VALID,151,VALID,0,
2008-04-02, 01:34:05,VALID,1010.13,VALID,0,VALID,95.4821,VALID,0.105969,VALID,23.6745,VALID,151,VALID,0,
2008-04-02, 01:35:05,VALID,1010.12,VALID,0,VALID,95.4744,VALID,0.105969,VALID,23.6745,VALID,151,VALID,0,
2008-04-02, 01:36:05,VALID,1010.12,VALID,0,VALID,95.4668,VALID,0.105969,VALID,23.655,VALID,151,VALID,0,
2008-04-02, 01:37:05,VALID,1010.11,VALID,0,VALID,95.4287,VALID,0.105969,VALID,23.6143,VALID,151,VALID,0,
2008-04-02, 01:38:05,VALID,1010.1,VALID,0,VALID,95.3905,VALID,0.105969,VALID,23.6143,VALID,151,VALID,0.0597656,
2008-04-02, 01:39:05,VALID,1010.09,VALID,0,VALID,95.3448,VALID,0.105969,VALID,23.5966,VALID,151,VALID,0,
2008-04-02, 01:40:05,VALID,1010.09,VALID,0,VALID,95.3677,VALID,0.105969,VALID,23.5771,VALID,151,VALID,0,
2008-04-02, 01:41:05,VALID,1010.11,VALID,0,VALID,95.4058,VALID,0.105969,VALID,23.5966,VALID,151,VALID,0,
2008-04-02, 01:42:05,VALID,1010.1,VALID,0,VALID,95.3753,VALID,0.105969,VALID,23.5966,VALID,151,VALID,0,
2008-04-02, 01:43:05,VALID,1010.09,VALID,0,VALID,95.3905,VALID,0.105969,VALID,23.5771,VALID,151,VALID,0,
2008-04-02, 01:44:05,VALID,1010.08,VALID,0,VALID,95.4134,VALID,0.105969,VALID,23.5363,VALID,151,VALID,0,
2008-04-02, 01:45:05,VALID,1010.08,VALID,0,VALID,95.4744,VALID,0.105969,VALID,23.5771,VALID,151,VALID,0,
2008-04-02, 01:46:05,VALID,1010.05,VALID,0,VALID,95.5507,VALID,0.105969,VALID,23.5771,VALID,151,VALID,0,
2008-04-02, 01:47:05,VALID,1010.03,VALID,0,VALID,95.5736,VALID,0.105969,VALID,23.5753,VALID,151,VALID,0,
2008-04-02, 01:48:05,VALID,1010,VALID,0,VALID,95.5126,VALID,0,VALID,23.5966,VALID,151,VALID,0.2625,
2008-04-02, 01:49:05,VALID,1010.01,VALID,0,VALID,95.5659,VALID,0.105969,VALID,23.5948,VALID,151,VALID,0.335547,
2008-04-02, 01:50:05,VALID,1010.01,VALID,0,VALID,95.5736,VALID,0.105969,VALID,23.5753,VALID,151,VALID,0.289063,
2008-04-02, 01:51:05,VALID,1009.99,VALID,0,VALID,95.6193,VALID,0.105969,VALID,23.6161,VALID,151,VALID,0.337891,
2008-04-02, 01:52:05,VALID,1009.99,VALID,0,VALID,95.6422,VALID,0.105969,VALID,23.6161,VALID,151,VALID,0.415625,
2008-04-02, 01:53:05,VALID,1009.98,VALID,0,VALID,95.5431,VALID,0.105969,VALID,23.5948,VALID,151,VALID,0.331641,
2008-04-02, 01:54:05,VALID,1010.01,VALID,0,VALID,95.4592,VALID,0.105969,VALID,23.5363,VALID,151,VALID,0.209766,
2008-04-02, 01:55:05,VALID,1010,VALID,0,VALID,95.4439,VALID,0.105969,VALID,23.5169,VALID,151,VALID,0.214453,
2008-04-02, 01:56:04,VALID,1010.01,VALID,0,VALID,95.4744,VALID,0.105969,VALID,23.5186,VALID,151,VALID,0.228906,
2008-04-02, 01:57:04,VALID,1009.96,VALID,0,VALID,95.5659,VALID,0.105969,VALID,23.4974,VALID,151,VALID,0.307422,
2008-04-02, 01:58:04,VALID,1009.97,VALID,0,VALID,95.6041,VALID,0.105969,VALID,23.4974,VALID,151,VALID,0.321094,
2008-04-02, 01:59:04,VALID,1009.94,VALID,0,VALID,95.688,VALID,0.105969,VALID,23.5363,VALID,151,VALID,0.369531,
2008-04-02, 02:00:04,VALID,1009.96,VALID,0,VALID,95.7261,VALID,0.105969,VALID,23.5363,VALID,151,VALID,0.326953,
2008-04-02, 02:01:04,VALID,1009.93,VALID,0,VALID,95.7337,VALID,0.105969,VALID,23.5576,VALID,151,VALID,0.309375,
2008-04-02, 02:02:04,VALID,1009.91,VALID,0,VALID,95.7337,VALID,0.105969,VALID,23.5576,VALID,151,VALID,0.396484,
2008-04-02, 02:03:04,VALID,1009.93,VALID,0,VALID,95.7337,VALID,0.105969,VALID,23.5576,VALID,151,VALID,0.378125,
2008-04-02, 02:04:04,VALID,1009.89,VALID,0,VALID,95.749,VALID,0.105969,VALID,23.5558,VALID,151,VALID,0.261719,
2008-04-02, 02:05:04,VALID,1009.89,VALID,0,VALID,95.7871,VALID,0.105969,VALID,23.5576,VALID,151,VALID,0.35,
2008-04-02, 02:06:04,VALID,1009.87,VALID,0,VALID,95.8023,VALID,0.105969,VALID,23.5558,VALID,143,VALID,0.382422,
2008-04-02, 02:07:04,VALID,1009.86,VALID,0,VALID,95.8023,VALID,0.105969,VALID,23.5558,VALID,143,VALID,0.530078,
2008-04-02, 02:08:04,VALID,1009.89,VALID,0,VALID,95.7718,VALID,0.105969,VALID,23.5771,VALID,140,VALID,0.813672,
2008-04-02, 02:09:04,VALID,1009.85,VALID,0,VALID,95.7108,VALID,0.105969,VALID,23.5753,VALID,142,VALID,0.565625,
2008-04-02, 02:10:04,VALID,1009.86,VALID,0,VALID,95.7261,VALID,0.105969,VALID,23.6161,VALID,142,VALID,0.601563,
2008-04-02, 02:11:04,VALID,1009.88,VALID,0,VALID,95.7032,VALID,0.105969,VALID,23.6356,VALID,135,VALID,0.658594,
2008-04-02, 02:12:04,VALID,1009.84,VALID,0,VALID,95.688,VALID,0.105969,VALID,23.6338,VALID,132,VALID,0.962891,
2008-04-02, 02:13:04,VALID,1009.86,VALID,0,VALID,95.6193,VALID,0.105969,VALID,23.6727,VALID,122,VALID,1.07461,
2008-04-02, 02:14:04,VALID,1009.84,VALID,0,VALID,95.4897,VALID,0.105969,VALID,23.7135,VALID,126,VALID,1.05195,
2008-04-02, 02:15:04,VALID,1009.83,VALID,0,VALID,95.3295,VALID,0.105969,VALID,23.733,VALID,118,VALID,0.619922,
2008-04-02, 02:16:04,VALID,1009.83,VALID,0,VALID,95.1542,VALID,0.105969,VALID,23.7312,VALID,109,VALID,0.621484,
2008-04-02, 02:17:04,VALID,1009.79,VALID,0,VALID,94.9711,VALID,0,VALID,23.7525,VALID,131,VALID,1.09063,
2008-04-02, 02:18:04,VALID,1009.79,VALID,0,VALID,94.8186,VALID,0,VALID,23.7507,VALID,124,VALID,0.854688,
2008-04-02, 02:19:04,VALID,1009.79,VALID,0,VALID,94.7119,VALID,0,VALID,23.7525,VALID,127,VALID,0.978906,
2008-04-02, 02:20:04,VALID,1009.81,VALID,0,VALID,94.5822,VALID,0.105969,VALID,23.772,VALID,121,VALID,0.675,
2008-04-02, 02:21:04,VALID,1009.77,VALID,0,VALID,94.4907,VALID,0,VALID,23.7525,VALID,135,VALID,0.916406,
2008-04-02, 02:22:04,VALID,1009.75,VALID,0,VALID,94.3992,VALID,0.105969,VALID,23.7135,VALID,137,VALID,1.16602,
2008-04-02, 02:23:04,VALID,1009.75,VALID,0,VALID,94.3458,VALID,0.105969,VALID,23.6745,VALID,146,VALID,0.907031,
2008-04-02, 02:24:04,VALID,1009.76,VALID,0,VALID,94.3534,VALID,0,VALID,23.6338,VALID,122,VALID,0.540625,
2008-04-02, 02:25:04,VALID,1009.76,VALID,0,VALID,94.2848,VALID,0,VALID,23.6161,VALID,144,VALID,0.677734,
2008-04-02, 02:26:04,VALID,1009.69,VALID,0,VALID,94.2772,VALID,0.105969,VALID,23.5771,VALID,149,VALID,0.741406,
2008-04-02, 02:27:04,VALID,1009.72,VALID,0,VALID,94.2391,VALID,0.105969,VALID,23.5576,VALID,147,VALID,0.766797,
2008-04-02, 02:28:04,VALID,1009.74,VALID,0,VALID,94.1933,VALID,0.105969,VALID,23.5169,VALID,143,VALID,0.849609,
2008-04-02, 02:29:04,VALID,1009.75,VALID,0,VALID,94.1704,VALID,0.105969,VALID,23.5186,VALID,137,VALID,1.25586,
2008-04-02, 02:30:04,VALID,1009.72,VALID,0,VALID,94.1933,VALID,0.105969,VALID,23.5186,VALID,144,VALID,0.538672,
2008-04-02, 02:31:04,VALID,1009.75,VALID,0,VALID,94.1399,VALID,0,VALID,23.4779,VALID,128,VALID,0.975391,
2008-04-02, 02:32:04,VALID,1009.75,VALID,0,VALID,94.1018,VALID,0,VALID,23.4779,VALID,136,VALID,0.557422,
2008-04-02, 02:33:04,VALID,1009.73,VALID,0,VALID,94.0255,VALID,0.105969,VALID,23.4797,VALID,134,VALID,0.734375,
2008-04-02, 02:34:04,VALID,1009.7,VALID,0,VALID,94.0179,VALID,0.105969,VALID,23.4992,VALID,131,VALID,0.444141,
2008-04-02, 02:35:04,VALID,1009.69,VALID,0,VALID,93.9188,VALID,0.105969,VALID,23.4602,VALID,125,VALID,0.790625,
2008-04-02, 02:36:04,VALID,1009.68,VALID,0,VALID,93.873,VALID,0,VALID,23.4407,VALID,166,VALID,0.665625,
2008-04-02, 02:37:04,VALID,1009.69,VALID,0,VALID,93.8273,VALID,0,VALID,23.4407,VALID,157,VALID,0.626953,
2008-04-02, 02:38:04,VALID,1009.71,VALID,0,VALID,93.8273,VALID,0.105969,VALID,23.4407,VALID,164,VALID,0.542578,
2008-04-02, 02:39:04,VALID,1009.71,VALID,0,VALID,93.8196,VALID,0.105969,VALID,23.4407,VALID,163,VALID,0.443359,
2008-04-02, 02:40:04,VALID,1009.7,VALID,0,VALID,93.8502,VALID,0.105969,VALID,23.4,VALID,162,VALID,0.414453,
2008-04-02, 02:41:04,VALID,1009.74,VALID,0,VALID,93.8959,VALID,0.105969,VALID,23.4212,VALID,160,VALID,0.319922,
2008-04-02, 02:42:04,VALID,1009.72,VALID,0,VALID,93.9035,VALID,0.105969,VALID,23.3805,VALID,157,VALID,0.342578,
2008-04-02, 02:43:04,VALID,1009.73,VALID,0,VALID,93.9417,VALID,0.105969,VALID,23.3805,VALID,123,VALID,0.289844,
2008-04-02, 02:44:04,VALID,1009.77,VALID,0,VALID,93.9645,VALID,0.105969,VALID,23.3805,VALID,122,VALID,0.413281,
2008-04-02, 02:45:04,VALID,1009.76,VALID,0,VALID,93.9264,VALID,0.105969,VALID,23.3805,VALID,110,VALID,0.713672,
2008-04-02, 02:46:04,VALID,1009.76,VALID,0,VALID,93.8349,VALID,0.105969,VALID,23.4,VALID,115,VALID,0.436328,
2008-04-02, 02:47:04,VALID,1009.77,VALID,0,VALID,93.8196,VALID,0,VALID,23.3805,VALID,113,VALID,0.474219,
2008-04-02, 02:48:04,VALID,1009.76,VALID,0,VALID,93.751,VALID,0.105969,VALID,23.4,VALID,89,VALID,0.742578,
2008-04-02, 02:49:04,VALID,1009.76,VALID,0,VALID,93.751,VALID,0.105969,VALID,23.4212,VALID,79,VALID,0.625781,
2008-04-02, 02:50:04,VALID,1009.76,VALID,0,VALID,93.6748,VALID,0,VALID,23.4212,VALID,68,VALID,0.665625,
2008-04-02, 02:51:04,VALID,1009.71,VALID,0,VALID,93.6671,VALID,0,VALID,23.361,VALID,62,VALID,0.359766,
2008-04-02, 02:52:04,VALID,1009.71,VALID,0,VALID,93.6748,VALID,0.105969,VALID,23.3415,VALID,62,VALID,0.433594,
2008-04-02, 02:53:04,VALID,1009.72,VALID,0,VALID,93.6976,VALID,0.105969,VALID,23.322,VALID,62,VALID,0.325,
2008-04-02, 02:54:04,VALID,1009.71,VALID,0,VALID,93.8425,VALID,0.105969,VALID,23.3433,VALID,62,VALID,0.255469,
2008-04-02, 02:55:04,VALID,1009.72,VALID,0,VALID,93.9188,VALID,0.105969,VALID,23.2831,VALID,62,VALID,0.393359,
2008-04-02, 02:56:04,VALID,1009.72,VALID,0,VALID,94.0027,VALID,0,VALID,23.2671,VALID,62,VALID,0.39375,
2008-04-02, 02:57:04,VALID,1009.7,VALID,0,VALID,94.1171,VALID,0,VALID,23.2866,VALID,62,VALID,0.321875,
2008-04-02, 02:58:04,VALID,1009.7,VALID,0,VALID,94.1247,VALID,0,VALID,23.2654,VALID,62,VALID,0.273438,
2008-04-02, 02:59:04,VALID,1009.67,VALID,0,VALID,94.2314,VALID,0,VALID,23.2476,VALID,62,VALID,0.235156,
2008-04-02, 03:00:04,VALID,1009.7,VALID,0,VALID,94.3534,VALID,0,VALID,23.2282,VALID,62,VALID,0.113672,
2008-04-02, 03:01:04,VALID,1009.68,VALID,0,VALID,94.4297,VALID,0,VALID,23.1679,VALID,62,VALID,0.0945313,
2008-04-02, 03:02:04,VALID,1009.71,VALID,0,VALID,94.5136,VALID,0,VALID,23.1892,VALID,62,VALID,0.144141,
2008-04-02, 03:03:04,VALID,1009.68,VALID,0,VALID,94.4602,VALID,0,VALID,23.1112,VALID,62,VALID,0,
2008-04-02, 03:04:04,VALID,1009.7,VALID,0,VALID,94.5441,VALID,0,VALID,23.1112,VALID,62,VALID,0.129688,
2008-04-02, 03:05:04,VALID,1009.7,VALID,0,VALID,94.6508,VALID,0,VALID,23.0511,VALID,62,VALID,0.0578125,
2008-04-02, 03:06:04,VALID,1009.69,VALID,0,VALID,94.7957,VALID,0,VALID,23.0705,VALID,62,VALID,0,
2008-04-02, 03:07:04,VALID,1009.7,VALID,0,VALID,94.8873,VALID,0,VALID,23.0918,VALID,153,VALID,0.43125,
2008-04-02, 03:08:04,VALID,1009.68,VALID,0,VALID,94.7347,VALID,0,VALID,23.0511,VALID,161,VALID,0.125781,
2008-04-02, 03:09:04,VALID,1009.7,VALID,0,VALID,94.7576,VALID,0,VALID,23.0528,VALID,161,VALID,0.158203,
2008-04-02, 03:10:04,VALID,1009.69,VALID,0,VALID,94.8415,VALID,0,VALID,23.0333,VALID,161,VALID,0.133203,
2008-04-02, 03:11:04,VALID,1009.66,VALID,0,VALID,94.8796,VALID,0.105969,VALID,22.9926,VALID,161,VALID,0.283984,
2008-04-02, 03:12:04,VALID,1009.7,VALID,0,VALID,94.9254,VALID,0.105969,VALID,22.9324,VALID,161,VALID,0.272266,
2008-04-02, 03:13:04,VALID,1009.71,VALID,0,VALID,94.9635,VALID,0.105969,VALID,22.9129,VALID,160,VALID,0.245703,
2008-04-02, 03:14:04,VALID,1009.71,VALID,0,VALID,95.0093,VALID,0,VALID,22.8952,VALID,84,VALID,0.292578,
2008-04-02, 03:15:04,VALID,1009.71,VALID,0,VALID,95.116,VALID,0,VALID,22.8562,VALID,84,VALID,0.338672,
2008-04-02, 03:16:04,VALID,1009.71,VALID,0,VALID,95.1465,VALID,0.105969,VALID,22.8155,VALID,84,VALID,0.202734,
2008-04-02, 03:17:04,VALID,1009.76,VALID,0,VALID,95.2228,VALID,0.105969,VALID,22.7978,VALID,83,VALID,0.256641,
2008-04-02, 03:18:04,VALID,1009.77,VALID,0,VALID,95.4592,VALID,0.105969,VALID,22.8173,VALID,81,VALID,0.222656,
2008-04-02, 03:19:04,VALID,1009.75,VALID,0,VALID,95.4668,VALID,0,VALID,22.8173,VALID,81,VALID,0,
2008-04-02, 03:20:04,VALID,1009.78,VALID,0,VALID,95.5659,VALID,0.105969,VALID,22.7978,VALID,81,VALID,0.237109,
2008-04-02, 03:21:04,VALID,1009.75,VALID,0,VALID,95.7108,VALID,0.105969,VALID,22.8368,VALID,81,VALID,0.189063,
2008-04-02, 03:22:04,VALID,1009.72,VALID,0,VALID,95.7413,VALID,0.105969,VALID,22.8368,VALID,81,VALID,0.198828,
2008-04-02, 03:23:04,VALID,1009.73,VALID,0,VALID,95.749,VALID,0.105969,VALID,22.8173,VALID,81,VALID,0.187109,
2008-04-02, 03:24:04,VALID,1009.73,VALID,0,VALID,95.749,VALID,0.105969,VALID,22.7978,VALID,81,VALID,0.198828,
2008-04-02, 03:25:04,VALID,1009.71,VALID,0,VALID,95.7032,VALID,0.105969,VALID,22.7766,VALID,81,VALID,0.112891,
2008-04-02, 03:26:04,VALID,1009.74,VALID,0,VALID,95.6727,VALID,0.105969,VALID,22.7783,VALID,81,VALID,0.165625,
2008-04-02, 03:27:04,VALID,1009.72,VALID,0,VALID,95.6651,VALID,0.105969,VALID,22.7978,VALID,81,VALID,0.0492188,
2008-04-02, 03:28:04,VALID,1009.73,VALID,0,VALID,95.6727,VALID,0.105969,VALID,22.7394,VALID,81,VALID,0,
2008-04-02, 03:29:04,VALID,1009.73,VALID,0,VALID,95.688,VALID,0.105969,VALID,22.7199,VALID,81,VALID,0,
2008-04-02, 03:30:04,VALID,1009.71,VALID,0,VALID,95.7566,VALID,0.105969,VALID,22.7199,VALID,81,VALID,0,
2008-04-02, 03:31:04,VALID,1009.71,VALID,0,VALID,95.7413,VALID,0,VALID,22.6809,VALID,81,VALID,0,
2008-04-02, 03:32:04,VALID,1009.68,VALID,0,VALID,95.7337,VALID,0.105969,VALID,22.6597,VALID,81,VALID,0,
2008-04-02, 03:33:04,VALID,1009.69,VALID,0,VALID,95.7871,VALID,0.105969,VALID,22.6402,VALID,81,VALID,0.00820312,
2008-04-02, 03:34:04,VALID,1009.67,VALID,0,VALID,95.8328,VALID,0.105969,VALID,22.6597,VALID,81,VALID,0.207813,
2008-04-02, 03:35:04,VALID,1009.66,VALID,0,VALID,95.8023,VALID,0.105969,VALID,22.642,VALID,81,VALID,0.323438,
2008-04-02, 03:36:04,VALID,1009.64,VALID,0,VALID,95.749,VALID,0.105969,VALID,22.5623,VALID,121,VALID,0.490625,
2008-04-02, 03:37:04,VALID,1009.65,VALID,0,VALID,95.8557,VALID,0.105969,VALID,22.603,VALID,134,VALID,0.526563,
2008-04-02, 03:38:04,VALID,1009.63,VALID,0,VALID,95.8405,VALID,0.105969,VALID,22.5835,VALID,134,VALID,0.405859,
2008-04-02, 03:39:04,VALID,1009.62,VALID,0,VALID,95.871,VALID,0.105969,VALID,22.5429,VALID,143,VALID,0.435547,
2008-04-02, 03:40:04,VALID,1009.6,VALID,0,VALID,95.9549,VALID,0.105969,VALID,22.564,VALID,146,VALID,0.457031,
2008-04-02, 03:41:04,VALID,1009.59,VALID,0,VALID,96.0311,VALID,0,VALID,22.5852,VALID,146,VALID,0.339453,
2008-04-02, 03:42:04,VALID,1009.59,VALID,0,VALID,96.0464,VALID,0,VALID,22.5446,VALID,146,VALID,0.423047,